SVA905 OEDF-OERK

Flight info

Callsign SVA905
Flight time 0h 59m
Altitude 28000
Route EMUSA2E/34L EMUSA DCT ESRAT
Aircraft B744/H-SDE3FGHIM1M2RWXY/LB1

Departure

Time 2026-04-16 14:24
Airport King Fahd International Airport (OEDF)

Arrival

Time 2026-04-16 15:23
Airport King Khalid International Airport (OERK)
Time Latitude Longitude Altitude Speed Heading
2026-04-16 13:45 26.47911 49.79001 66 ft 0 kts 75°
2026-04-16 14:09 26.47909 49.78994 66 ft 2 kts 75°
2026-04-16 14:10 26.47905 49.78978 66 ft 2 kts 77°
2026-04-16 14:10 26.47904 49.78961 66 ft 2 kts 97°
2026-04-16 14:10 26.47907 49.78945 65 ft 2 kts 111°
2026-04-16 14:10 26.47914 49.78930 65 ft 2 kts 126°
2026-04-16 14:11 26.47924 49.78918 65 ft 2 kts 141°
2026-04-16 14:11 26.47937 49.78909 65 ft 2 kts 156°
2026-04-16 14:11 26.47945 49.78905 65 ft 1 kts 166°
2026-04-16 14:11 26.47949 49.78904 65 ft 0 kts 165°
2026-04-16 14:15 26.47948 49.78904 65 ft 0 kts 165°
2026-04-16 14:15 26.47918 49.78914 65 ft 10 kts 164°
2026-04-16 14:15 26.47824 49.78944 65 ft 15 kts 164°
2026-04-16 14:16 26.47736 49.78940 63 ft 11 kts 228°
2026-04-16 14:16 26.47710 49.78867 63 ft 8 kts 239°
2026-04-16 14:16 26.47673 49.78833 63 ft 5 kts 192°
2026-04-16 14:16 26.47634 49.78841 63 ft 7 kts 164°
2026-04-16 14:17 26.47562 49.78864 63 ft 14 kts 164°
2026-04-16 14:17 26.47438 49.78902 63 ft 22 kts 165°
2026-04-16 14:17 26.47284 49.78950 63 ft 22 kts 165°
2026-04-16 14:17 26.47139 49.78994 64 ft 19 kts 164°
2026-04-16 14:18 26.47024 49.79030 67 ft 15 kts 165°
2026-04-16 14:18 26.46930 49.79059 68 ft 14 kts 165°
2026-04-16 14:18 26.46815 49.79095 68 ft 21 kts 164°
2026-04-16 14:18 26.46656 49.79144 69 ft 24 kts 165°
2026-04-16 14:19 26.46507 49.79190 70 ft 19 kts 165°
2026-04-16 14:19 26.46385 49.79227 67 ft 17 kts 165°
2026-04-16 14:19 26.46279 49.79260 66 ft 14 kts 163°
2026-04-16 14:19 26.46191 49.79288 67 ft 11 kts 165°
2026-04-16 14:20 26.46123 49.79308 66 ft 9 kts 165°
2026-04-16 14:20 26.46062 49.79327 65 ft 10 kts 164°
2026-04-16 14:20 26.45976 49.79353 63 ft 16 kts 165°
2026-04-16 14:20 26.45858 49.79390 63 ft 17 kts 165°
2026-04-16 14:21 26.45753 49.79422 63 ft 13 kts 163°
2026-04-16 14:21 26.45670 49.79448 63 ft 10 kts 165°
2026-04-16 14:21 26.45598 49.79471 62 ft 11 kts 164°
2026-04-16 14:21 26.45516 49.79492 61 ft 11 kts 179°
2026-04-16 14:22 26.45464 49.79462 60 ft 7 kts 249°
2026-04-16 14:22 26.45453 49.79417 60 ft 6 kts 255°
2026-04-16 14:22 26.45438 49.79357 60 ft 10 kts 255°
2026-04-16 14:22 26.45417 49.79268 62 ft 13 kts 256°
2026-04-16 14:23 26.45428 49.79204 62 ft 6 kts 322°
2026-04-16 14:23 26.45453 49.79191 63 ft 0 kts 344°
2026-04-16 14:23 26.45531 49.79168 63 ft 37 kts 345°
2026-04-16 14:23 26.46017 49.79017 66 ft 105 kts 345°
2026-04-16 14:24 26.46929 49.78741 67 ft 163 kts 345°
2026-04-16 14:24 26.48122 49.78352 327 ft 185 kts 346°
2026-04-16 14:24 26.49345 49.77957 972 ft 189 kts 346°
2026-04-16 14:24 26.50672 49.77573 1607 ft 199 kts 345°
2026-04-16 14:25 26.51996 49.77180 2335 ft 198 kts 344°
2026-04-16 14:25 26.53329 49.76784 2992 ft 201 kts 343°
2026-04-16 14:25 26.54693 49.76364 3521 ft 215 kts 342°
2026-04-16 14:25 26.56093 49.75672 3743 ft 226 kts 322°
2026-04-16 14:26 26.57155 49.74345 3881 ft 234 kts 300°
2026-04-16 14:26 26.57674 49.72568 4039 ft 251 kts 282°
2026-04-16 14:26 26.57957 49.70632 4527 ft 256 kts 283°
2026-04-16 14:26 26.58301 49.68684 5147 ft 257 kts 284°
2026-04-16 14:27 26.58669 49.66722 5714 ft 259 kts 284°
2026-04-16 14:27 26.59035 49.64752 6247 ft 263 kts 284°
2026-04-16 14:27 26.59406 49.62758 6775 ft 266 kts 283°
2026-04-16 14:27 26.59785 49.60728 7303 ft 269 kts 283°
2026-04-16 14:28 26.60169 49.58668 7842 ft 271 kts 283°
2026-04-16 14:28 26.60551 49.56609 8382 ft 273 kts 282°
2026-04-16 14:28 26.60930 49.54541 8908 ft 274 kts 281°
2026-04-16 14:28 26.61018 49.52427 9294 ft 280 kts 263°
2026-04-16 14:29 26.60456 49.50314 9261 ft 288 kts 244°
2026-04-16 14:29 26.59344 49.48463 9282 ft 285 kts 236°
2026-04-16 14:29 26.58164 49.46683 9265 ft 284 kts 238°
2026-04-16 14:29 26.57028 49.44864 9155 ft 284 kts 238°
2026-04-16 14:30 26.55909 49.43062 9089 ft 283 kts 238°
2026-04-16 14:30 26.54794 49.41262 9060 ft 283 kts 238°
2026-04-16 14:30 26.53674 49.39458 9041 ft 282 kts 238°
2026-04-16 14:30 26.52552 49.37649 9015 ft 283 kts 238°
2026-04-16 14:31 26.51432 49.35833 8999 ft 283 kts 238°
2026-04-16 14:31 26.50313 49.34020 9005 ft 283 kts 238°
2026-04-16 14:31 26.49189 49.32204 9001 ft 283 kts 238°
2026-04-16 14:31 26.48156 49.30371 8993 ft 282 kts 243°
2026-04-16 14:32 26.47200 49.28452 9000 ft 282 kts 243°
2026-04-16 14:32 26.46219 49.26541 9004 ft 282 kts 242°
2026-04-16 14:32 26.45252 49.24641 9019 ft 282 kts 243°
2026-04-16 14:32 26.44274 49.22723 9022 ft 282 kts 243°
2026-04-16 14:33 26.43305 49.20826 9018 ft 282 kts 242°
2026-04-16 14:33 26.42358 49.18944 9021 ft 281 kts 243°
2026-04-16 14:33 26.41396 49.17024 9019 ft 281 kts 243°
2026-04-16 14:33 26.40433 49.15150 9015 ft 281 kts 242°
2026-04-16 14:34 26.39446 49.13241 9007 ft 281 kts 243°
2026-04-16 14:34 26.38474 49.11357 9006 ft 281 kts 242°
2026-04-16 14:34 26.37505 49.09471 9003 ft 281 kts 242°
2026-04-16 14:34 26.36528 49.07590 8972 ft 285 kts 242°
2026-04-16 14:35 26.35525 49.05612 9114 ft 297 kts 243°
2026-04-16 14:35 26.34496 49.03604 9680 ft 296 kts 243°
2026-04-16 14:35 26.33483 49.01615 10244 ft 296 kts 243°
2026-04-16 14:35 26.32480 48.99612 10755 ft 297 kts 243°
2026-04-16 14:36 26.31461 48.97621 11249 ft 298 kts 242°
2026-04-16 14:36 26.30420 48.95626 11683 ft 300 kts 243°
2026-04-16 14:36 26.29373 48.93599 12043 ft 305 kts 242°
2026-04-16 14:36 26.28304 48.91530 12442 ft 309 kts 242°
2026-04-16 14:37 26.27234 48.89462 12912 ft 310 kts 243°
2026-04-16 14:37 26.26159 48.87376 13375 ft 311 kts 243°
2026-04-16 14:37 26.25079 48.85305 13838 ft 311 kts 243°
2026-04-16 14:37 26.23983 48.83198 14272 ft 312 kts 243°
2026-04-16 14:38 26.22904 48.81124 14687 ft 314 kts 243°
2026-04-16 14:38 26.21817 48.79012 15026 ft 316 kts 244°
2026-04-16 14:38 26.20713 48.76868 15424 ft 317 kts 244°
2026-04-16 14:38 26.19754 48.74745 15531 ft 296 kts 255°
2026-04-16 14:39 26.19413 48.72581 15235 ft 277 kts 273°
2026-04-16 14:39 26.19766 48.70517 14850 ft 279 kts 292°
2026-04-16 14:39 26.20827 48.68585 14396 ft 314 kts 309°
2026-04-16 14:39 26.22588 48.67008 14427 ft 333 kts 328°
2026-04-16 14:40 26.24776 48.66106 14871 ft 341 kts 344°
2026-04-16 14:40 26.27174 48.65771 15211 ft 344 kts 345°
2026-04-16 14:40 26.29412 48.64998 15581 ft 336 kts 328°
2026-04-16 14:40 26.31329 48.63524 15975 ft 329 kts 312°
2026-04-16 14:41 26.32701 48.61542 16331 ft 326 kts 296°
2026-04-16 14:41 26.33460 48.59168 16713 ft 325 kts 280°
2026-04-16 14:41 26.33525 48.56651 17012 ft 329 kts 264°
2026-04-16 14:41 26.32927 48.54206 17351 ft 333 kts 253°
2026-04-16 14:42 26.31980 48.51833 17657 ft 338 kts 248°
2026-04-16 14:42 26.30952 48.49448 17995 ft 338 kts 250°
2026-04-16 14:42 26.30055 48.47038 18315 ft 338 kts 252°
2026-04-16 14:42 26.29189 48.44605 18617 ft 340 kts 252°
2026-04-16 14:43 26.28349 48.42148 18906 ft 342 kts 253°
2026-04-16 14:43 26.27520 48.39653 19223 ft 343 kts 253°
2026-04-16 14:43 26.26704 48.37138 19484 ft 345 kts 254°
2026-04-16 14:43 26.25903 48.34636 19744 ft 348 kts 253°
2026-04-16 14:44 26.25104 48.32096 20096 ft 349 kts 253°
2026-04-16 14:44 26.24303 48.29531 20618 ft 356 kts 253°
2026-04-16 14:44 26.23502 48.26925 21335 ft 357 kts 253°
2026-04-16 14:44 26.22696 48.24303 21968 ft 360 kts 253°
2026-04-16 14:45 26.21884 48.21679 22611 ft 362 kts 253°
2026-04-16 14:45 26.21067 48.19032 23133 ft 367 kts 253°
2026-04-16 14:45 26.20237 48.16325 23845 ft 367 kts 253°
2026-04-16 14:45 26.19403 48.13635 24412 ft 371 kts 253°
2026-04-16 14:46 26.18582 48.10949 25012 ft 372 kts 253°
2026-04-16 14:46 26.17746 48.08240 25624 ft 373 kts 253°
2026-04-16 14:46 26.16895 48.05483 26152 ft 375 kts 253°
2026-04-16 14:46 26.16057 48.02755 26685 ft 377 kts 253°
2026-04-16 14:47 26.15198 47.99968 27233 ft 378 kts 253°
2026-04-16 14:47 26.14351 47.97238 27727 ft 377 kts 253°
2026-04-16 14:47 26.13504 47.94479 27932 ft 375 kts 253°
2026-04-16 14:47 26.12667 47.91767 27983 ft 371 kts 253°
2026-04-16 14:48 26.11821 47.89046 27978 ft 370 kts 253°
2026-04-16 14:48 26.10980 47.86313 27966 ft 371 kts 253°
2026-04-16 14:48 26.10133 47.83577 27991 ft 382 kts 253°
2026-04-16 14:48 26.09246 47.80731 28063 ft 395 kts 253°
2026-04-16 14:49 26.08343 47.77803 28127 ft 408 kts 253°
2026-04-16 14:49 26.07405 47.74764 28162 ft 422 kts 253°
2026-04-16 14:49 26.06442 47.71653 28232 ft 434 kts 253°
2026-04-16 14:49 26.05430 47.68420 28260 ft 448 kts 252°
2026-04-16 14:50 26.04411 47.65127 28197 ft 459 kts 253°
2026-04-16 14:50 26.03364 47.61762 28094 ft 457 kts 253°
2026-04-16 14:50 26.01316 47.55184 27973 ft 451 kts 252°
2026-04-16 14:51 26.00289 47.51891 27970 ft 452 kts 252°
2026-04-16 14:51 25.99256 47.48591 27978 ft 453 kts 253°
2026-04-16 14:51 25.98215 47.45278 27983 ft 453 kts 253°
2026-04-16 14:51 25.97184 47.41982 27977 ft 452 kts 253°
2026-04-16 14:53 25.89949 47.18949 27989 ft 451 kts 252°
2026-04-16 14:53 25.88911 47.15677 27986 ft 450 kts 253°
2026-04-16 14:54 25.87878 47.12395 27988 ft 451 kts 252°
2026-04-16 14:54 25.86835 47.09076 27979 ft 451 kts 253°
2026-04-16 14:54 25.85921 47.06126 27701 ft 453 kts 253°
2026-04-16 14:54 25.84924 47.02885 26860 ft 434 kts 253°
2026-04-16 14:55 25.83799 46.99892 25906 ft 415 kts 242°
2026-04-16 14:55 25.82217 46.97340 24938 ft 395 kts 235°
2026-04-16 14:55 25.80600 46.94982 23979 ft 378 kts 237°
2026-04-16 14:55 25.79087 46.92649 23121 ft 369 kts 237°
2026-04-16 14:56 25.77595 46.90341 22354 ft 363 kts 238°
2026-04-16 14:56 25.76144 46.88092 21615 ft 359 kts 238°
2026-04-16 14:56 25.74723 46.85844 20879 ft 353 kts 240°
2026-04-16 14:56 25.73440 46.83584 20152 ft 349 kts 242°
2026-04-16 14:57 25.72135 46.81309 19406 ft 345 kts 241°
2026-04-16 14:57 25.70861 46.79109 18679 ft 341 kts 242°
2026-04-16 14:57 25.69598 46.76900 17951 ft 337 kts 242°
2026-04-16 14:57 25.68357 46.74726 17224 ft 333 kts 242°
2026-04-16 14:58 25.67134 46.72607 16509 ft 328 kts 242°
2026-04-16 14:58 25.64710 46.68372 15510 ft 324 kts 242°
2026-04-16 14:58 25.63520 46.66279 14914 ft 320 kts 242°
2026-04-16 14:59 25.62345 46.64204 14228 ft 317 kts 241°
2026-04-16 14:59 25.60943 46.62318 13566 ft 317 kts 224°
2026-04-16 14:59 25.59091 46.61035 13029 ft 317 kts 207°
2026-04-16 14:59 25.56946 46.60473 12571 ft 316 kts 187°
2026-04-16 15:00 25.54748 46.60694 12183 ft 325 kts 169°
2026-04-16 15:00 25.52637 46.61686 11887 ft 329 kts 150°
2026-04-16 15:00 25.50912 46.63351 11765 ft 327 kts 131°
2026-04-16 15:00 25.49754 46.65485 11648 ft 326 kts 112°
2026-04-16 15:01 25.48934 46.67825 11438 ft 323 kts 121°
2026-04-16 15:01 25.47639 46.69826 11134 ft 317 kts 139°
2026-04-16 15:01 25.45902 46.71232 10820 ft 306 kts 158°
2026-04-16 15:01 25.43899 46.71996 10510 ft 299 kts 169°
2026-04-16 15:02 25.41896 46.72585 10210 ft 296 kts 167°
2026-04-16 15:02 25.39950 46.73248 9902 ft 293 kts 165°
2026-04-16 15:02 25.38056 46.74062 9563 ft 293 kts 154°
2026-04-16 15:02 25.36290 46.75236 9254 ft 291 kts 151°
2026-04-16 15:03 25.34564 46.76388 8946 ft 289 kts 152°
2026-04-16 15:03 25.32854 46.77501 8632 ft 288 kts 152°
2026-04-16 15:03 25.31122 46.78632 8325 ft 286 kts 151°
2026-04-16 15:03 25.29408 46.79774 8012 ft 285 kts 150°
2026-04-16 15:04 25.27717 46.80861 7707 ft 284 kts 152°
2026-04-16 15:04 25.25980 46.81937 7392 ft 282 kts 151°
2026-04-16 15:04 25.24291 46.83002 7086 ft 279 kts 150°
2026-04-16 15:04 25.22597 46.84071 6765 ft 278 kts 150°
2026-04-16 15:05 25.20937 46.85124 6457 ft 277 kts 149°
2026-04-16 15:05 25.19260 46.86203 6141 ft 276 kts 148°
2026-04-16 15:05 25.17612 46.87256 5891 ft 272 kts 150°
2026-04-16 15:05 25.15968 46.88279 5889 ft 270 kts 149°
2026-04-16 15:06 25.14341 46.89312 5947 ft 275 kts 149°
2026-04-16 15:06 25.12665 46.90373 5973 ft 277 kts 149°
2026-04-16 15:06 25.10977 46.91367 6051 ft 265 kts 158°
2026-04-16 15:06 25.09217 46.91752 6006 ft 258 kts 180°
2026-04-16 15:07 25.07446 46.91365 5998 ft 259 kts 202°
2026-04-16 15:07 25.05953 46.90270 5998 ft 259 kts 225°
2026-04-16 15:07 25.04952 46.88640 5997 ft 261 kts 247°
2026-04-16 15:07 25.04452 46.86718 6031 ft 262 kts 256°
2026-04-16 15:08 25.04021 46.84770 6029 ft 262 kts 254°
2026-04-16 15:08 25.03768 46.82782 5988 ft 263 kts 273°
2026-04-16 15:08 25.04201 46.80816 5997 ft 264 kts 296°
2026-04-16 15:08 25.05264 46.79180 6008 ft 265 kts 318°
2026-04-16 15:09 25.06800 46.78089 6031 ft 264 kts 338°
2026-04-16 15:09 25.08509 46.77352 6054 ft 264 kts 340°
2026-04-16 15:09 25.10230 46.76568 6043 ft 262 kts 338°
2026-04-16 15:09 25.11917 46.75788 6036 ft 262 kts 339°
2026-04-16 15:10 25.13580 46.75008 6026 ft 261 kts 337°
2026-04-16 15:10 25.15204 46.74054 6021 ft 262 kts 330°
2026-04-16 15:10 25.16776 46.73026 6034 ft 262 kts 331°
2026-04-16 15:10 25.18364 46.72015 6040 ft 262 kts 331°
2026-04-16 15:11 25.19940 46.70998 6047 ft 262 kts 331°
2026-04-16 15:11 25.21522 46.69978 6044 ft 262 kts 330°
2026-04-16 15:11 25.23111 46.68947 6039 ft 262 kts 330°
2026-04-16 15:11 25.24688 46.67926 6037 ft 262 kts 332°
2026-04-16 15:12 25.26276 46.66940 6036 ft 262 kts 331°
2026-04-16 15:12 25.27854 46.65938 6033 ft 261 kts 331°
2026-04-16 15:12 25.29432 46.64942 6026 ft 262 kts 331°
2026-04-16 15:12 25.31014 46.63938 6031 ft 262 kts 331°
2026-04-16 15:13 25.32609 46.62925 6037 ft 263 kts 331°
2026-04-16 15:13 25.34194 46.61911 6042 ft 263 kts 331°
2026-04-16 15:13 25.35786 46.60904 6043 ft 261 kts 332°
2026-04-16 15:13 25.37351 46.59912 6036 ft 261 kts 330°
2026-04-16 15:14 25.38750 46.58649 5993 ft 256 kts 309°
2026-04-16 15:14 25.39581 46.56943 5968 ft 248 kts 285°
2026-04-16 15:14 25.39724 46.55078 5955 ft 246 kts 261°
2026-04-16 15:14 25.39178 46.53308 5956 ft 242 kts 237°
2026-04-16 15:15 25.38054 46.51962 5961 ft 239 kts 212°
2026-04-16 15:15 25.36540 46.51245 5985 ft 236 kts 188°
2026-04-16 15:15 25.34900 46.51174 6027 ft 234 kts 176°
2026-04-16 15:15 25.33271 46.51212 6041 ft 235 kts 179°
2026-04-16 15:16 25.31672 46.51201 6076 ft 220 kts 178°
2026-04-16 15:16 25.30147 46.51196 6016 ft 215 kts 178°
2026-04-16 15:16 25.28669 46.51182 5997 ft 212 kts 178°
2026-04-16 15:16 25.27172 46.51183 5986 ft 211 kts 178°
2026-04-16 15:17 25.25726 46.51401 5944 ft 208 kts 155°
2026-04-16 15:17 25.24507 46.52213 5983 ft 205 kts 142°
2026-04-16 15:17 25.23353 46.53178 6027 ft 207 kts 140°
2026-04-16 15:17 25.22241 46.54218 6030 ft 209 kts 141°
2026-04-16 15:18 25.21067 46.55164 6043 ft 208 kts 145°
2026-04-16 15:18 25.19865 46.56037 6048 ft 208 kts 146°
2026-04-16 15:18 25.18658 46.56878 6195 ft 199 kts 147°
2026-04-16 15:18 25.17438 46.57701 6296 ft 208 kts 147°
2026-04-16 15:19 25.16197 46.58520 6215 ft 207 kts 148°
2026-04-16 15:19 25.14955 46.59316 6107 ft 204 kts 148°
2026-04-16 15:19 25.13718 46.60110 6050 ft 204 kts 149°
2026-04-16 15:19 25.12500 46.60884 6046 ft 203 kts 149°
2026-04-16 15:20 25.11252 46.61673 6050 ft 203 kts 149°
2026-04-16 15:20 25.10069 46.62423 5967 ft 193 kts 149°
2026-04-16 15:20 25.08924 46.63144 5686 ft 190 kts 149°
2026-04-16 15:20 25.07761 46.63878 5112 ft 194 kts 148°
2026-04-16 15:21 25.06609 46.64599 4730 ft 184 kts 149°
2026-04-16 15:21 25.05531 46.65277 4447 ft 176 kts 148°
2026-04-16 15:21 25.04457 46.65960 3838 ft 186 kts 148°
2026-04-16 15:21 25.03310 46.66678 3158 ft 190 kts 148°
2026-04-16 15:22 25.02172 46.67388 2777 ft 184 kts 148°
2026-04-16 15:22 25.01113 46.68068 2516 ft 170 kts 148°
2026-04-16 15:22 25.00100 46.68698 2344 ft 166 kts 149°
2026-04-16 15:22 24.99079 46.69321 2290 ft 169 kts 150°
2026-04-16 15:23 24.98044 46.69969 2156 ft 171 kts 149°
2026-04-16 15:23 24.97032 46.70616 2057 ft 159 kts 149°
2026-04-16 15:23 24.96211 46.71136 2054 ft 105 kts 150°
2026-04-16 15:23 24.95765 46.71408 2053 ft 39 kts 161°
2026-04-16 15:24 24.95680 46.71426 2053 ft 0 kts 178°
2026-04-16 15:24 24.95549 46.71410 2053 ft 19 kts 200°
2026-04-16 15:24 24.95490 46.71363 2053 ft 0 kts 229°
2026-04-16 15:25 24.95490 46.71362 2053 ft 0 kts 229°
2026-04-16 15:25 24.95489 46.71361 2053 ft 0 kts 229°
2026-04-16 15:25 24.95468 46.71330 2053 ft 7 kts 238°
2026-04-16 15:26 24.95446 46.71291 2053 ft 2 kts 246°
2026-04-16 15:26 24.95457 46.71270 2053 ft 6 kts 327°
2026-04-16 15:26 24.95518 46.71229 2053 ft 14 kts 330°
2026-04-16 15:26 24.95626 46.71161 2053 ft 18 kts 330°
2026-04-16 15:27 24.95727 46.71095 2053 ft 15 kts 329°
2026-04-16 15:27 24.95813 46.71041 2053 ft 12 kts 331°
2026-04-16 15:27 24.95884 46.70996 2053 ft 10 kts 330°
2026-04-16 15:27 24.95943 46.70960 2053 ft 8 kts 330°
2026-04-16 15:28 24.95993 46.70928 2053 ft 8 kts 330°
2026-04-16 15:28 24.96047 46.70895 2054 ft 9 kts 331°
2026-04-16 15:28 24.96114 46.70852 2053 ft 12 kts 329°
2026-04-16 15:28 24.96195 46.70800 2054 ft 15 kts 331°
2026-04-16 15:29 24.96297 46.70736 2054 ft 18 kts 331°
2026-04-16 15:29 24.96421 46.70657 2054 ft 20 kts 330°
2026-04-16 15:29 24.96538 46.70583 2054 ft 15 kts 330°
2026-04-16 15:29 24.96611 46.70538 2054 ft 10 kts 330°
2026-04-16 15:30 24.96671 46.70500 2054 ft 9 kts 329°
2026-04-16 15:30 24.96731 46.70461 2054 ft 10 kts 332°
2026-04-16 15:30 24.96803 46.70417 2054 ft 13 kts 330°
2026-04-16 15:30 24.96892 46.70360 2054 ft 16 kts 330°
2026-04-16 15:31 24.96982 46.70285 2054 ft 14 kts 285°
2026-04-16 15:31 24.96951 46.70192 2054 ft 11 kts 241°
2026-04-16 15:31 24.96920 46.70133 2054 ft 7 kts 239°
2026-04-16 15:31 24.96901 46.70095 2054 ft 4 kts 248°
2026-04-16 15:32 24.96900 46.70046 2054 ft 11 kts 298°
2026-04-16 15:32 24.97012 46.69966 2054 ft 25 kts 330°
2026-04-16 15:32 24.97161 46.69871 2054 ft 23 kts 330°
2026-04-16 15:32 24.97295 46.69787 2054 ft 21 kts 330°
2026-04-16 15:33 24.97422 46.69721 2054 ft 18 kts 338°
2026-04-16 15:33 24.97526 46.69661 2054 ft 15 kts 330°
2026-04-16 15:33 24.97626 46.69599 2054 ft 24 kts 330°
2026-04-16 15:33 24.97805 46.69486 2054 ft 28 kts 330°
2026-04-16 15:34 24.97866 46.69408 2054 ft 10 kts 247°
2026-04-16 15:34 24.97837 46.69352 2054 ft 4 kts 240°
2026-04-16 15:34 24.97835 46.69349 2054 ft 2 kts 240°
2026-04-16 15:34 24.97834 46.69347 2054 ft 0 kts 240°